Webcam Zuidwest more information Webcam Zuidwest


Onweer radar more information blitzortung!


Regen radar more information rain snow radar


Weerstation Alkmaar Centrum

Weerstation Luyksgestel

Website Noardburgum


U vindt ons ook hier:

Het Weer Aktueel

UK Metoffice

European Weather Network

Weather Underground

AWEKAS

Citizen Weather Observer Program (CWOP)

HAMweather, WeatherForYou, PWS Weather



Het weer levert geen direct gevaar op.    Er zijn geen waarschuwingen afgegeven.
IFRIESLA82 History tables / reports. Script startWUhistory.php

Select another period ( hide this area )

Eenheden Periode Custom range Directly to
Metrisch Engels Beide
Dagelijkse Wekelijkse Maandelijkse Jaarlijkse
use both date-selectors for a custom range
previous Dag
With this date

WeatherUnderground graphs for this period ( click here ) Loading the graph can take up to a minute!


Dagelijkse Samenvatting Woensdag Feb 24 2021
Tijd Temp. ( °C ) Dew pt. ( °C ) Wind ( km/h ) van Windvlaag ( km/h ) Luchtdruk ( hPa ) Humid.( % ) Rainrate ( cm ) Zonneschijn ( W/m2 )
Hoog16,2 12,3 39,0 Zuiden ( 2240/4720 ) 39,0 1026,8 90 - 475
Gemiddeld13,0 10,2 18,9 Zuiden #120/250 24,1 1025,5 83 - 134 #122/250
Laag10,1 8,3 8,0   13,0 1024,0 76 -  
Dagelijkse Tabular details for Woensdag Feb 24 2021
Tijd Temp. ( °C ) Dew pt. ( °C ) Wind ( km/h ) van Windvlaag ( km/h ) Luchtdruk ( hPa ) Humid.( % ) Rainrate ( cm ) Zonneschijn ( W/m2 )
00:04 11,6 9,7 20,0 Zuiden 21,0 1026,1 88 - -
00:09 11,6 9,7 18,0 Zuiden 21,0 1026,4 88 - -
00:14 11,5 9,6 14,0 Zuiden 19,0 1026,4 88 - -
00:19 11,5 9,6 14,0 ZZW 19,0 1026,4 88 - -
00:24 11,4 9,7 16,0 ZZW 19,0 1026,4 89 - -
00:29 11,4 9,7 14,0 ZZW 18,0 1026,4 89 - -
00:34 11,3 9,6 14,0 ZW 16,0 1026,4 89 - -
00:39 11,3 9,6 16,0 ZZW 18,0 1026,4 89 - -
00:44 11,3 9,6 14,0 ZZW 16,0 1026,4 89 - -
00:49 11,4 9,7 16,0 Zuiden 19,0 1026,4 89 - -
00:54 11,4 9,7 18,0 Zuiden 19,0 1026,8 89 - -
00:59 11,4 9,7 21,0 Zuiden 21,0 1026,4 89 - -
01:04 11,4 9,7 20,0 Zuiden 21,0 1026,4 89 - -
01:09 11,6 9,8 16,0 ZZW 19,0 1026,8 89 - -
01:14 11,6 9,8 18,0 ZZW 23,0 1026,8 89 - -
01:19 11,7 9,9 16,0 ZZW 19,0 1026,4 89 - -
01:24 11,7 9,9 21,0 ZZW 21,0 1026,4 89 - -
01:29 11,7 9,9 21,0 ZW 26,0 1026,8 89 - -
01:34 11,8 10,0 26,0 ZW 26,0 1026,4 89 - -
01:39 11,9 10,0 27,0 ZZW 29,0 1026,4 88 - -
01:44 12,0 10,1 18,0 ZW 24,0 1026,4 88 - -
01:49 12,0 10,1 26,0 ZZW 27,0 1026,4 88 - -
01:54 11,9 10,0 20,0 ZZW 26,0 1026,4 88 - -
01:59 11,9 10,0 26,0 ZW 29,0 1026,4 88 - -
02:04 11,9 10,0 23,0 ZZW 29,0 1026,4 88 - -
02:09 11,9 10,0 18,0 ZZW 23,0 1026,4 88 - -
02:14 11,8 9,9 21,0 ZZW 21,0 1026,4 88 - -
02:19 11,9 10,0 26,0 ZZW 26,0 1026,4 88 - -
02:24 12,0 10,1 23,0 ZZW 32,0 1026,4 88 - -
02:29 11,9 10,0 23,0 Zuiden 31,0 1026,4 88 - -
02:34 12,0 10,1 20,0 ZW 32,0 1026,1 88 - -
02:39 12,0 9,9 27,0 Zuiden 29,0 1026,1 87 - -
02:44 11,9 9,8 20,0 ZZW 26,0 1026,1 87 - -
02:49 12,0 9,9 24,0 ZZW 27,0 1026,1 87 - -
02:54 11,9 9,8 23,0 ZZW 34,0 1026,1 87 - -
02:59 11,9 9,8 21,0 Zuiden 34,0 1026,1 87 - -
03:04 11,9 9,8 16,0 Zuiden 23,0 1025,7 87 - -
03:09 11,8 9,7 18,0 ZZW 26,0 1025,7 87 - -
03:14 11,8 9,5 24,0 Zuiden 26,0 1025,7 86 - -
03:19 11,7 9,4 18,0 ZZW 24,0 1025,7 86 - -
03:24 11,7 9,4 21,0 ZZW 26,0 1025,7 86 - -
03:29 11,7 9,3 16,0 ZZW 23,0 1025,7 85 - -
03:34 11,7 9,3 23,0 ZZW 29,0 1025,7 85 - -
03:39 11,7 9,1 20,0 ZZW 26,0 1025,4 84 - -
03:44 11,7 9,1 24,0 ZZW 26,0 1025,4 84 - -
03:49 11,7 8,9 16,0 ZZW 24,0 1025,4 83 - -
03:54 11,6 8,8 21,0 ZZW 26,0 1025,4 83 - -
03:59 11,6 8,8 20,0 ZZW 21,0 1025,4 83 - -
04:04 11,4 8,6 16,0 Zuiden 26,0 1025,4 83 - -
04:09 11,4 8,8 13,0 Zuiden 19,0 1025,4 84 - -
04:14 11,3 8,7 20,0 Zuiden 23,0 1025,4 84 - -
04:19 11,3 8,7 13,0 Zuiden 23,0 1025,4 84 - -
04:24 11,2 8,8 13,0 ZZW 23,0 1025,4 85 - -
04:29 11,2 8,8 21,0 Zuiden 26,0 1025,4 85 - -
04:34 11,1 8,7 14,0 Zuiden 21,0 1025,4 85 - -
04:39 11,1 8,7 14,0 Zuiden 23,0 1025,4 85 - -
04:44 11,1 8,8 16,0 ZZO 21,0 1025,4 86 - -
04:49 11,1 8,7 13,0 Zuiden 23,0 1025,4 85 - -
04:54 11,1 8,7 18,0 Zuiden 23,0 1025,4 85 - -
04:59 11,1 8,7 24,0 ZZW 26,0 1025,7 85 - -
05:04 11,1 8,7 20,0 Zuiden 26,0 1025,4 85 - -
05:09 11,0 8,6 14,0 ZZW 21,0 1025,4 85 - -
05:14 10,9 8,5 18,0 Zuiden 19,0 1025,4 85 - -
05:19 10,8 8,4 18,0 Zuiden 19,0 1025,4 85 - -
05:24 10,8 8,4 13,0 ZZW 29,0 1025,4 85 - -
05:29 10,7 8,3 21,0 ZZW 21,0 1025,4 85 - -
05:34 10,8 8,4 20,0 ZZW 19,0 1025,4 85 - -
05:39 10,7 8,3 20,0 ZZW 19,0 1025,4 85 - -
05:44 10,7 8,3 14,0 ZZW 18,0 1025,4 85 - -
05:49 10,8 8,6 16,0 Zuiden 16,0 1025,4 86 - -
05:54 10,8 8,6 16,0 Zuiden 19,0 1025,4 86 - -
05:59 10,7 8,5 14,0 ZZW 18,0 1025,4 86 - -
06:04 10,7 8,5 18,0 Zuiden 23,0 1025,4 86 - -
06:09 10,7 8,5 16,0 Zuiden 19,0 1025,4 87 - -
06:14 10,6 8,5 18,0 ZZO 24,0 1025,4 87 - -
06:19 10,5 8,4 14,0 ZZO 23,0 1025,4 87 - -
06:24 10,4 8,5 16,0 ZZO 21,0 1025,4 88 - -
06:29 10,4 8,5 18,0 ZZO 23,0 1025,4 88 - -
06:34 10,5 8,6 21,0 ZZO 29,0 1025,4 88 - -
06:39 10,4 8,5 18,0 Zuiden 24,0 1025,4 88 - -
06:44 10,4 8,5 20,0 Zuiden 26,0 1025,4 88 - -
06:49 10,4 8,6 21,0 Zuiden 21,0 1025,4 89 - -
06:54 10,3 8,6 14,0 Zuiden 21,0 1025,4 89 - -
06:59 10,2 8,5 21,0 Zuiden 23,0 1025,4 89 - -
07:04 10,3 8,6 23,0 Zuiden 29,0 1025,4 89 - -
07:09 10,3 8,6 20,0 ZZO 24,0 1025,4 89 - -
07:14 10,3 8,6 23,0 ZZO 26,0 1025,4 89 - -
07:19 10,2 8,5 18,0 Zuiden 24,0 1025,4 90 - -
07:24 10,2 8,6 14,0 Zuiden 31,0 1025,4 90 - -
07:29 10,2 8,6 18,0 Zuiden 21,0 1025,4 90 - -
07:34 10,2 8,6 18,0 Zuiden 23,0 1025,4 90 - -
07:39 10,2 8,6 20,0 ZZO 23,0 1025,4 90 - -
07:44 10,2 8,6 18,0 Zuiden 21,0 1025,4 90 - 7
07:49 10,1 8,5 18,0 ZZO 29,0 1025,4 90 - 11
07:54 10,2 8,6 14,0 ZZW 19,0 1025,4 90 - 12
07:59 10,2 8,6 23,0 Zuiden 24,0 1025,7 90 - 16
08:04 10,3 8,7 21,0 Zuiden 34,0 1025,7 90 - 21
08:09 10,2 8,6 16,0 Zuiden 24,0 1025,7 90 - 25
08:14 10,3 8,7 18,0 Zuiden 24,0 1025,7 90 - 28
08:24 10,4 8,8 21,0 ZZO 24,0 1026,1 90 - 35
08:29 10,4 8,8 16,0 ZZO 23,0 1026,1 90 - 40
08:34 10,4 8,8 16,0 Zuiden 27,0 1026,1 90 - 46
08:39 10,4 8,8 18,0 Zuiden 27,0 1025,7 90 - 49
08:44 10,4 8,8 18,0 Zuiden 24,0 1025,7 90 - 53
08:49 10,6 9,0 27,0 Zuiden 27,0 1026,1 90 - 56
08:54 10,6 9,0 14,0 Zuiden 21,0 1026,1 90 - 60
08:59 10,7 9,1 18,0 Zuiden 26,0 1026,1 90 - 62
09:04 10,8 9,1 20,0 Zuiden 24,0 1026,1 90 - 62
09:09 10,8 9,1 18,0 Zuiden 23,0 1026,1 89 - 60
09:14 10,9 9,2 20,0 Zuiden 23,0 1026,1 89 - 60
09:19 11,0 9,3 18,0 Zuiden 26,0 1026,1 89 - 70
09:29 11,4 9,5 18,0 Zuiden 26,0 1026,1 88 - 79
09:34 11,5 9,6 27,0 Zuiden 29,0 1026,1 88 - 86
09:39 11,6 9,5 18,0 ZZW 26,0 1026,1 87 - 95
09:44 11,6 9,5 20,0 ZZO 24,0 1026,1 87 - 91
09:49 11,8 9,7 24,0 Zuiden 27,0 1026,1 87 - 90
09:54 11,8 9,7 23,0 ZZW 27,0 1026,1 87 - 88
09:59 11,9 9,6 20,0 Zuiden 29,0 1026,1 86 - 86
10:04 12,2 9,9 24,0 Zuiden 26,0 1026,1 86 - 90
10:09 12,2 9,9 21,0 Zuiden 29,0 1026,1 86 - 93
10:14 12,4 9,9 18,0 ZZW 31,0 1026,1 85 - 97
10:19 12,5 10,0 21,0 Zuiden 31,0 1026,1 85 - 98
10:24 12,6 10,0 18,0 Zuiden 29,0 1026,1 85 - 100
10:29 12,7 10,1 27,0 Zuiden 29,0 1026,1 84 - 100
10:34 12,7 10,1 21,0 Zuiden 32,0 1026,1 84 - 98
10:39 12,8 10,2 16,0 ZZW 29,0 1026,1 84 - 97
10:44 12,9 10,3 23,0 ZZW 24,0 1026,1 84 - 98
10:49 13,0 10,4 21,0 ZZW 26,0 1026,1 84 - 98
10:54 13,1 10,5 24,0 ZZW 29,0 1026,1 84 - 97
10:59 13,1 10,3 20,0 ZZW 31,0 1026,1 83 - 93
11:04 13,2 10,4 21,0 ZZW 26,0 1026,1 83 - 100
11:09 13,2 10,4 23,0 Zuiden 24,0 1026,1 83 - 130
11:14 13,2 10,4 29,0 Zuiden 29,0 1026,1 83 - 151
11:19 13,3 10,5 26,0 Zuiden 29,0 1026,1 83 - 155
11:24 13,3 10,3 26,0 Zuiden 32,0 1026,4 82 - 149
11:29 13,4 10,4 21,0 ZZW 26,0 1026,4 82 - 264
11:34 13,6 10,6 34,0 Zuiden 34,0 1026,1 82 - 306
11:39 13,7 10,7 24,0 Zuiden 27,0 1026,4 82 - 304
11:44 13,8 10,8 18,0 ZZW 23,0 1026,4 82 - 257
11:49 13,8 10,8 20,0 Zuiden 24,0 1026,4 82 - 167
11:54 13,9 10,9 14,0 ZZW 26,0 1026,4 82 - 211
11:59 14,2 11,0 20,0 ZW 27,0 1026,4 82 - 239
12:04 14,4 11,0 27,0 ZW 34,0 1026,4 81 - 258
12:09 14,5 10,9 26,0 ZZW 37,0 1026,4 79 - 258
12:14 14,6 11,0 26,0 ZZW 37,0 1026,4 79 - 374
12:19 14,6 10,8 20,0 ZZW 31,0 1026,1 78 - 374
12:24 14,9 11,1 24,0 ZZW 31,0 1026,1 78 - 461
12:29 15,2 11,4 31,0 ZZW 35,0 1026,4 78 - 455
12:34 15,3 11,3 34,0 ZZW 35,0 1026,1 77 - 461
12:39 15,2 11,2 39,0 ZZW 39,0 1026,4 77 - 475
12:44 15,3 11,3 27,0 ZW 35,0 1026,1 77 - 322
12:49 15,4 11,4 27,0 ZZW 37,0 1026,1 77 - 329
12:54 15,5 11,5 26,0 ZZW 27,0 1026,1 77 - 279
12:59 15,5 11,3 20,0 ZZW 37,0 1026,1 76 - 265
13:04 15,5 11,3 23,0 ZZW 27,0 1026,1 76 - 264
13:09 15,5 11,5 24,0 ZZW 29,0 1026,1 77 - 250
13:14 15,6 11,6 26,0 Zuiden 29,0 1025,7 77 - 246
13:19 15,6 11,6 18,0 Zuiden 29,0 1025,7 77 - 209
13:24 15,5 11,5 20,0 ZZW 29,0 1025,7 77 - 169
13:29 15,4 11,5 24,0 ZZW 34,0 1025,7 78 - 135
13:34 15,2 11,4 20,0 Zuiden 34,0 1025,7 78 - 130
13:39 15,1 11,3 23,0 Zuiden 24,0 1025,7 78 - 116
13:44 14,9 11,3 16,0 Zuiden 23,0 1025,7 79 - 121
13:49 14,9 11,3 23,0 ZZW 32,0 1025,7 79 - 144
13:54 15,1 11,5 23,0 ZZW 32,0 1025,7 79 - 156
13:59 15,1 11,5 18,0 Zuiden 27,0 1025,7 79 - 158
14:04 15,1 11,5 21,0 ZZW 23,0 1025,7 79 - 137
14:09 15,1 11,5 16,0 ZZW 26,0 1025,7 79 - 141
14:14 15,1 11,5 23,0 Zuiden 31,0 1025,4 79 - 144
14:19 15,2 11,6 20,0 Zuiden 24,0 1025,4 79 - 142
14:24 15,2 11,6 18,0 Zuiden 29,0 1025,4 79 - 135
14:29 15,2 11,6 23,0 ZZW 29,0 1025,4 79 - 135
14:34 15,2 11,6 18,0 Zuiden 27,0 1025,4 79 - 142
14:39 15,3 11,7 16,0 Zuiden 27,0 1025,4 79 - 141
14:44 15,3 11,7 20,0 Zuiden 21,0 1025,4 79 - 158
14:49 15,5 11,9 20,0 Zuiden 21,0 1025,4 79 - 172
14:54 15,6 11,9 21,0 Zuiden 24,0 1025,1 79 - 171
14:59 15,6 11,8 18,0 ZZO 24,0 1025,4 78 - 160
15:04 15,6 11,8 20,0 Zuiden 24,0 1025,1 78 - 167
15:09 15,7 11,9 18,0 Zuiden 24,0 1025,1 78 - 192
15:14 16,1 12,3 20,0 ZZO 24,0 1025,1 78 - 193
15:19 16,1 12,3 20,0 Zuiden 27,0 1025,1 78 - 169
15:24 16,1 12,1 24,0 Zuiden 24,0 1025,1 77 - 158
15:29 16,1 12,1 21,0 Zuiden 27,0 1025,1 77 - 135
15:34 16,0 12,0 16,0 Zuiden 27,0 1025,1 77 - 114
15:39 16,0 12,0 23,0 ZZO 29,0 1025,1 77 - 142
15:44 16,1 12,1 20,0 Zuiden 21,0 1025,1 77 - 153
15:49 16,1 12,1 20,0 ZZO 27,0 1025,1 77 - 139
15:54 16,1 12,1 21,0 ZZO 27,0 1025,1 77 - 134
15:59 16,1 12,1 20,0 Zuiden 26,0 1024,7 77 - 125
16:04 16,2 12,2 23,0 ZZO 27,0 1024,7 77 - 120
16:09 16,2 12,2 14,0 Zuiden 26,0 1025,1 77 - 104
16:14 16,1 12,1 26,0 Zuiden 27,0 1024,7 77 - 98
16:19 16,1 12,3 20,0 Zuiden 27,0 1024,7 78 - 116
16:24 16,2 12,2 18,0 Zuiden 24,0 1024,7 77 - 109
16:29 16,1 12,1 21,0 Zuiden 24,0 1024,7 77 - 95
16:34 16,1 12,3 14,0 Zuiden 19,0 1024,7 78 - 76
16:39 16,1 12,3 21,0 Zuiden 23,0 1024,7 78 - 74
16:44 16,1 12,3 20,0 Zuiden 23,0 1024,7 78 - 70
16:49 16,1 12,3 24,0 Zuiden 29,0 1024,7 78 - 67
16:54 16,1 12,3 23,0 Zuiden 23,0 1024,4 78 - 47
16:59 16,0 12,2 13,0 ZZW 23,0 1024,7 78 - 51
17:04 15,9 12,1 14,0 Zuiden 19,0 1024,7 78 - 53
17:09 15,9 12,1 16,0 Zuiden 19,0 1024,4 78 - 56
17:14 15,9 12,1 14,0 Zuiden 23,0 1024,4 78 - 49
17:19 15,9 12,1 18,0 ZZO 19,0 1024,4 78 - 44
17:24 15,9 12,3 16,0 ZZO 19,0 1024,4 79 - 32
17:29 15,8 12,2 20,0 ZZO 19,0 1024,4 79 - 26
17:34 15,8 12,2 16,0 Zuiden 21,0 1024,0 79 - 25
17:39 15,7 12,1 16,0 ZZO 18,0 1024,4 79 - 14
17:44 15,6 12,0 13,0 ZZO 18,0 1024,4 79 - 11
17:49 15,5 11,9 16,0 ZZO 19,0 1024,4 79 - 7
17:54 15,4 12,0 20,0 ZZO 19,0 1024,0 80 - 5
17:59 15,3 11,9 14,0 Zuiden 19,0 1024,0 80 - 5
18:04 15,3 11,9 13,0 Zuiden 19,0 1024,4 80 - -
18:09 15,3 11,7 14,0 ZZO 23,0 1024,4 79 - -
18:14 15,3 11,7 14,0 ZZW 18,0 1024,4 79 - -
18:19 15,3 11,5 14,0 Zuiden 18,0 1024,4 78 - -
18:24 15,3 11,3 11,0 Zuiden 18,0 1024,4 77 - -
18:29 15,3 11,3 20,0 Zuiden 19,0 1024,4 77 - -
18:34 15,3 11,3 10,0 Zuiden 19,0 1024,4 77 - -
18:39 15,1 11,3 18,0 ZZO 21,0 1024,4 78 - -
18:44 15,1 11,1 18,0 ZZO 21,0 1024,4 77 - -
18:49 15,1 11,1 16,0 ZZO 19,0 1024,4 77 - -
18:54 14,9 10,9 11,0 ZZO 21,0 1024,4 77 - -
18:59 14,7 10,7 10,0 Zuiden 21,0 1024,4 77 - -
19:04 14,4 10,6 16,0 ZZO 16,0 1024,4 78 - -
19:09 14,3 10,5 14,0 ZZO 16,0 1024,4 78 - -
19:14 14,2 10,4 16,0 ZZO 19,0 1024,4 78 - -
19:19 14,0 10,2 11,0 ZZO 19,0 1024,4 78 - -
19:24 13,9 10,1 16,0 Zuiden 16,0 1024,4 78 - -
19:29 13,8 10,0 13,0 Zuiden 15,0 1024,0 78 - -
19:34 13,7 9,9 14,0 ZZO 18,0 1024,4 78 - -
19:39 13,6 9,8 10,0 Zuiden 15,0 1024,4 78 - -
19:44 13,5 9,7 16,0 ZZO 16,0 1024,4 78 - -
19:49 13,4 9,6 10,0 Zuiden 15,0 1024,4 78 - -
19:54 13,3 9,5 11,0 ZZO 13,0 1024,0 78 - -
19:59 13,3 9,5 13,0 ZZO 16,0 1024,0 78 - -
20:04 13,3 9,4 13,0 ZZO 15,0 1024,0 77 - -
20:09 13,2 9,3 11,0 ZZO 18,0 1024,0 77 - -
20:14 13,2 9,3 14,0 ZZO 18,0 1024,0 77 - -
20:19 13,1 9,2 10,0 ZZO 13,0 1024,0 78 - -
20:24 12,9 9,2 13,0 ZZO 15,0 1024,0 78 - -
20:29 12,8 9,1 14,0 ZZO 16,0 1024,0 78 - -
20:34 12,7 9,2 14,0 ZZO 16,0 1024,0 79 - -
20:39 12,8 9,2 14,0 ZZO 15,0 1024,0 79 - -
20:44 12,9 9,2 11,0 Zuiden 16,0 1024,0 78 - -
20:49 12,8 9,1 10,0 Zuiden 15,0 1024,0 78 - -
20:54 12,9 9,2 8,0 Zuiden 15,0 1024,0 78 - -
20:59 12,8 9,1 11,0 ZZW 16,0 1024,0 78 - -
Dagelijkse Samenvatting Woensdag Feb 24 2021
Tijd Temp. ( °C ) Dew pt. ( °C ) Wind ( km/h ) van Windvlaag ( km/h ) Luchtdruk ( hPa ) Humid.( % ) Rainrate ( cm ) Zonneschijn ( W/m2 )
Hoog16,2 12,3 39,0 Zuiden ( 2240/4720 ) 39,0 1026,8 90 - 475
Gemiddeld13,0 10,2 18,9 Zuiden #120/250 24,1 1025,5 83 - 134 #122/250
Laag10,1 8,3 8,0   13,0 1024,0 76 -  
Dagelijkse Tabular details for Woensdag Feb 24 2021
Tijd Temp. ( °C ) Dew pt. ( °C ) Wind ( km/h ) van Windvlaag ( km/h ) Luchtdruk ( hPa ) Humid.( % ) Rainrate ( cm ) Zonneschijn ( W/m2 )
00:04 11,6 9,7 20,0 Zuiden 21,0 1026,1 88 - -
00:09 11,6 9,7 18,0 Zuiden 21,0 1026,4 88 - -
00:14 11,5 9,6 14,0 Zuiden 19,0 1026,4 88 - -
00:19 11,5 9,6 14,0 ZZW 19,0 1026,4 88 - -
00:24 11,4 9,7 16,0 ZZW 19,0 1026,4 89 - -
00:29 11,4 9,7 14,0 ZZW 18,0 1026,4 89 - -
00:34 11,3 9,6 14,0 ZW 16,0 1026,4 89 - -
00:39 11,3 9,6 16,0 ZZW 18,0 1026,4 89 - -
00:44 11,3 9,6 14,0 ZZW 16,0 1026,4 89 - -
00:49 11,4 9,7 16,0 Zuiden 19,0 1026,4 89 - -
00:54 11,4 9,7 18,0 Zuiden 19,0 1026,8 89 - -
00:59 11,4 9,7 21,0 Zuiden 21,0 1026,4 89 - -
01:04 11,4 9,7 20,0 Zuiden 21,0 1026,4 89 - -
01:09 11,6 9,8 16,0 ZZW 19,0 1026,8 89 - -
01:14 11,6 9,8 18,0 ZZW 23,0 1026,8 89 - -
01:19 11,7 9,9 16,0 ZZW 19,0 1026,4 89 - -
01:24 11,7 9,9 21,0 ZZW 21,0 1026,4 89 - -
01:29 11,7 9,9 21,0 ZW 26,0 1026,8 89 - -
01:34 11,8 10,0 26,0 ZW 26,0 1026,4 89 - -
01:39 11,9 10,0 27,0 ZZW 29,0 1026,4 88 - -
01:44 12,0 10,1 18,0 ZW 24,0 1026,4 88 - -
01:49 12,0 10,1 26,0 ZZW 27,0 1026,4 88 - -
01:54 11,9 10,0 20,0 ZZW 26,0 1026,4 88 - -
01:59 11,9 10,0 26,0 ZW 29,0 1026,4 88 - -
02:04 11,9 10,0 23,0 ZZW 29,0 1026,4 88 - -
02:09 11,9 10,0 18,0 ZZW 23,0 1026,4 88 - -
02:14 11,8 9,9 21,0 ZZW 21,0 1026,4 88 - -
02:19 11,9 10,0 26,0 ZZW 26,0 1026,4 88 - -
02:24 12,0 10,1 23,0 ZZW 32,0 1026,4 88 - -
02:29 11,9 10,0 23,0 Zuiden 31,0 1026,4 88 - -
02:34 12,0 10,1 20,0 ZW 32,0 1026,1 88 - -
02:39 12,0 9,9 27,0 Zuiden 29,0 1026,1 87 - -
02:44 11,9 9,8 20,0 ZZW 26,0 1026,1 87 - -
02:49 12,0 9,9 24,0 ZZW 27,0 1026,1 87 - -
02:54 11,9 9,8 23,0 ZZW 34,0 1026,1 87 - -
02:59 11,9 9,8 21,0 Zuiden 34,0 1026,1 87 - -
03:04 11,9 9,8 16,0 Zuiden 23,0 1025,7 87 - -
03:09 11,8 9,7 18,0 ZZW 26,0 1025,7 87 - -
03:14 11,8 9,5 24,0 Zuiden 26,0 1025,7 86 - -
03:19 11,7 9,4 18,0 ZZW 24,0 1025,7 86 - -
03:24 11,7 9,4 21,0 ZZW 26,0 1025,7 86 - -
03:29 11,7 9,3 16,0 ZZW 23,0 1025,7 85 - -
03:34 11,7 9,3 23,0 ZZW 29,0 1025,7 85 - -
03:39 11,7 9,1 20,0 ZZW 26,0 1025,4 84 - -
03:44 11,7 9,1 24,0 ZZW 26,0 1025,4 84 - -
03:49 11,7 8,9 16,0 ZZW 24,0 1025,4 83 - -
03:54 11,6 8,8 21,0 ZZW 26,0 1025,4 83 - -
03:59 11,6 8,8 20,0 ZZW 21,0 1025,4 83 - -
04:04 11,4 8,6 16,0 Zuiden 26,0 1025,4 83 - -
04:09 11,4 8,8 13,0 Zuiden 19,0 1025,4 84 - -
04:14 11,3 8,7 20,0 Zuiden 23,0 1025,4 84 - -
04:19 11,3 8,7 13,0 Zuiden 23,0 1025,4 84 - -
04:24 11,2 8,8 13,0 ZZW 23,0 1025,4 85 - -
04:29 11,2 8,8 21,0 Zuiden 26,0 1025,4 85 - -
04:34 11,1 8,7 14,0 Zuiden 21,0 1025,4 85 - -
04:39 11,1 8,7 14,0 Zuiden 23,0 1025,4 85 - -
04:44 11,1 8,8 16,0 ZZO 21,0 1025,4 86 - -
04:49 11,1 8,7 13,0 Zuiden 23,0 1025,4 85 - -
04:54 11,1 8,7 18,0 Zuiden 23,0 1025,4 85 - -
04:59 11,1 8,7 24,0 ZZW 26,0 1025,7 85 - -
05:04 11,1 8,7 20,0 Zuiden 26,0 1025,4 85 - -
05:09 11,0 8,6 14,0 ZZW 21,0 1025,4 85 - -
05:14 10,9 8,5 18,0 Zuiden 19,0 1025,4 85 - -
05:19 10,8 8,4 18,0 Zuiden 19,0 1025,4 85 - -
05:24 10,8 8,4 13,0 ZZW 29,0 1025,4 85 - -
05:29 10,7 8,3 21,0 ZZW 21,0 1025,4 85 - -
05:34 10,8 8,4 20,0 ZZW 19,0 1025,4 85 - -
05:39 10,7 8,3 20,0 ZZW 19,0 1025,4 85 - -
05:44 10,7 8,3 14,0 ZZW 18,0 1025,4 85 - -
05:49 10,8 8,6 16,0 Zuiden 16,0 1025,4 86 - -
05:54 10,8 8,6 16,0 Zuiden 19,0 1025,4 86 - -
05:59 10,7 8,5 14,0 ZZW 18,0 1025,4 86 - -
06:04 10,7 8,5 18,0 Zuiden 23,0 1025,4 86 - -
06:09 10,7 8,5 16,0 Zuiden 19,0 1025,4 87 - -
06:14 10,6 8,5 18,0 ZZO 24,0 1025,4 87 - -
06:19 10,5 8,4 14,0 ZZO 23,0 1025,4 87 - -
06:24 10,4 8,5 16,0 ZZO 21,0 1025,4 88 - -
06:29 10,4 8,5 18,0 ZZO 23,0 1025,4 88 - -
06:34 10,5 8,6 21,0 ZZO 29,0 1025,4 88 - -
06:39 10,4 8,5 18,0 Zuiden 24,0 1025,4 88 - -
06:44 10,4 8,5 20,0 Zuiden 26,0 1025,4 88 - -
06:49 10,4 8,6 21,0 Zuiden 21,0 1025,4 89 - -
06:54 10,3 8,6 14,0 Zuiden 21,0 1025,4 89 - -
06:59 10,2 8,5 21,0 Zuiden 23,0 1025,4 89 - -
07:04 10,3 8,6 23,0 Zuiden 29,0 1025,4 89 - -
07:09 10,3 8,6 20,0 ZZO 24,0 1025,4 89 - -
07:14 10,3 8,6 23,0 ZZO 26,0 1025,4 89 - -
07:19 10,2 8,5 18,0 Zuiden 24,0 1025,4 90 - -
07:24 10,2 8,6 14,0 Zuiden 31,0 1025,4 90 - -
07:29 10,2 8,6 18,0 Zuiden 21,0 1025,4 90 - -
07:34 10,2 8,6 18,0 Zuiden 23,0 1025,4 90 - -
07:39 10,2 8,6 20,0 ZZO 23,0 1025,4 90 - -
07:44 10,2 8,6 18,0 Zuiden 21,0 1025,4 90 - 7
07:49 10,1 8,5 18,0 ZZO 29,0 1025,4 90 - 11
07:54 10,2 8,6 14,0 ZZW 19,0 1025,4 90 - 12
07:59 10,2 8,6 23,0 Zuiden 24,0 1025,7 90 - 16
08:04 10,3 8,7 21,0 Zuiden 34,0 1025,7 90 - 21
08:09 10,2 8,6 16,0 Zuiden 24,0 1025,7 90 - 25
08:14 10,3 8,7 18,0 Zuiden 24,0 1025,7 90 - 28
08:24 10,4 8,8 21,0 ZZO 24,0 1026,1 90 - 35
08:29 10,4 8,8 16,0 ZZO 23,0 1026,1 90 - 40
08:34 10,4 8,8 16,0 Zuiden 27,0 1026,1 90 - 46
08:39 10,4 8,8 18,0 Zuiden 27,0 1025,7 90 - 49
08:44 10,4 8,8 18,0 Zuiden 24,0 1025,7 90 - 53
08:49 10,6 9,0 27,0 Zuiden 27,0 1026,1 90 - 56
08:54 10,6 9,0 14,0 Zuiden 21,0 1026,1 90 - 60
08:59 10,7 9,1 18,0 Zuiden 26,0 1026,1 90 - 62
09:04 10,8 9,1 20,0 Zuiden 24,0 1026,1 90 - 62
09:09 10,8 9,1 18,0 Zuiden 23,0 1026,1 89 - 60
09:14 10,9 9,2 20,0 Zuiden 23,0 1026,1 89 - 60
09:19 11,0 9,3 18,0 Zuiden 26,0 1026,1 89 - 70
09:29 11,4 9,5 18,0 Zuiden 26,0 1026,1 88 - 79
09:34 11,5 9,6 27,0 Zuiden 29,0 1026,1 88 - 86
09:39 11,6 9,5 18,0 ZZW 26,0 1026,1 87 - 95
09:44 11,6 9,5 20,0 ZZO 24,0 1026,1 87 - 91
09:49 11,8 9,7 24,0 Zuiden 27,0 1026,1 87 - 90
09:54 11,8 9,7 23,0 ZZW 27,0 1026,1 87 - 88
09:59 11,9 9,6 20,0 Zuiden 29,0 1026,1 86 - 86
10:04 12,2 9,9 24,0 Zuiden 26,0 1026,1 86 - 90
10:09 12,2 9,9 21,0 Zuiden 29,0 1026,1 86 - 93
10:14 12,4 9,9 18,0 ZZW 31,0 1026,1 85 - 97
10:19 12,5 10,0 21,0 Zuiden 31,0 1026,1 85 - 98
10:24 12,6 10,0 18,0 Zuiden 29,0 1026,1 85 - 100
10:29 12,7 10,1 27,0 Zuiden 29,0 1026,1 84 - 100
10:34 12,7 10,1 21,0 Zuiden 32,0 1026,1 84 - 98
10:39 12,8 10,2 16,0 ZZW 29,0 1026,1 84 - 97
10:44 12,9 10,3 23,0 ZZW 24,0 1026,1 84 - 98
10:49 13,0 10,4 21,0 ZZW 26,0 1026,1 84 - 98
10:54 13,1 10,5 24,0 ZZW 29,0 1026,1 84 - 97
10:59 13,1 10,3 20,0 ZZW 31,0 1026,1 83 - 93
11:04 13,2 10,4 21,0 ZZW 26,0 1026,1 83 - 100
11:09 13,2 10,4 23,0 Zuiden 24,0 1026,1 83 - 130
11:14 13,2 10,4 29,0 Zuiden 29,0 1026,1 83 - 151
11:19 13,3 10,5 26,0 Zuiden 29,0 1026,1 83 - 155
11:24 13,3 10,3 26,0 Zuiden 32,0 1026,4 82 - 149
11:29 13,4 10,4 21,0 ZZW 26,0 1026,4 82 - 264
11:34 13,6 10,6 34,0 Zuiden 34,0 1026,1 82 - 306
11:39 13,7 10,7 24,0 Zuiden 27,0 1026,4 82 - 304
11:44 13,8 10,8 18,0 ZZW 23,0 1026,4 82 - 257
11:49 13,8 10,8 20,0 Zuiden 24,0 1026,4 82 - 167
11:54 13,9 10,9 14,0 ZZW 26,0 1026,4 82 - 211
11:59 14,2 11,0 20,0 ZW 27,0 1026,4 82 - 239
12:04 14,4 11,0 27,0 ZW 34,0 1026,4 81 - 258
12:09 14,5 10,9 26,0 ZZW 37,0 1026,4 79 - 258
12:14 14,6 11,0 26,0 ZZW 37,0 1026,4 79 - 374
12:19 14,6 10,8 20,0 ZZW 31,0 1026,1 78 - 374
12:24 14,9 11,1 24,0 ZZW 31,0 1026,1 78 - 461
12:29 15,2 11,4 31,0 ZZW 35,0 1026,4 78 - 455
12:34 15,3 11,3 34,0 ZZW 35,0 1026,1 77 - 461
12:39 15,2 11,2 39,0 ZZW 39,0 1026,4 77 - 475
12:44 15,3 11,3 27,0 ZW 35,0 1026,1 77 - 322
12:49 15,4 11,4 27,0 ZZW 37,0 1026,1 77 - 329
12:54 15,5 11,5 26,0 ZZW 27,0 1026,1 77 - 279
12:59 15,5 11,3 20,0 ZZW 37,0 1026,1 76 - 265
13:04 15,5 11,3 23,0 ZZW 27,0 1026,1 76 - 264
13:09 15,5 11,5 24,0 ZZW 29,0 1026,1 77 - 250
13:14 15,6 11,6 26,0 Zuiden 29,0 1025,7 77 - 246
13:19 15,6 11,6 18,0 Zuiden 29,0 1025,7 77 - 209
13:24 15,5 11,5 20,0 ZZW 29,0 1025,7 77 - 169
13:29 15,4 11,5 24,0 ZZW 34,0 1025,7 78 - 135
13:34 15,2 11,4 20,0 Zuiden 34,0 1025,7 78 - 130
13:39 15,1 11,3 23,0 Zuiden 24,0 1025,7 78 - 116
13:44 14,9 11,3 16,0 Zuiden 23,0 1025,7 79 - 121
13:49 14,9 11,3 23,0 ZZW 32,0 1025,7 79 - 144
13:54 15,1 11,5 23,0 ZZW 32,0 1025,7 79 - 156
13:59 15,1 11,5 18,0 Zuiden 27,0 1025,7 79 - 158
14:04 15,1 11,5 21,0 ZZW 23,0 1025,7 79 - 137
14:09 15,1 11,5 16,0 ZZW 26,0 1025,7 79 - 141
14:14 15,1 11,5 23,0 Zuiden 31,0 1025,4 79 - 144
14:19 15,2 11,6 20,0 Zuiden 24,0 1025,4 79 - 142
14:24 15,2 11,6 18,0 Zuiden 29,0 1025,4 79 - 135
14:29 15,2 11,6 23,0 ZZW 29,0 1025,4 79 - 135
14:34 15,2 11,6 18,0 Zuiden 27,0 1025,4 79 - 142
14:39 15,3 11,7 16,0 Zuiden 27,0 1025,4 79 - 141
14:44 15,3 11,7 20,0 Zuiden 21,0 1025,4 79 - 158
14:49 15,5 11,9 20,0 Zuiden 21,0 1025,4 79 - 172
14:54 15,6 11,9 21,0 Zuiden 24,0 1025,1 79 - 171
14:59 15,6 11,8 18,0 ZZO 24,0 1025,4 78 - 160
15:04 15,6 11,8 20,0 Zuiden 24,0 1025,1 78 - 167
15:09 15,7 11,9 18,0 Zuiden 24,0 1025,1 78 - 192
15:14 16,1 12,3 20,0 ZZO 24,0 1025,1 78 - 193
15:19 16,1 12,3 20,0 Zuiden 27,0 1025,1 78 - 169
15:24 16,1 12,1 24,0 Zuiden 24,0 1025,1 77 - 158
15:29 16,1 12,1 21,0 Zuiden 27,0 1025,1 77 - 135
15:34 16,0 12,0 16,0 Zuiden 27,0 1025,1 77 - 114
15:39 16,0 12,0 23,0 ZZO 29,0 1025,1 77 - 142
15:44 16,1 12,1 20,0 Zuiden 21,0 1025,1 77 - 153
15:49 16,1 12,1 20,0 ZZO 27,0 1025,1 77 - 139
15:54 16,1 12,1 21,0 ZZO 27,0 1025,1 77 - 134
15:59 16,1 12,1 20,0 Zuiden 26,0 1024,7 77 - 125
16:04 16,2 12,2 23,0 ZZO 27,0 1024,7 77 - 120
16:09 16,2 12,2 14,0 Zuiden 26,0 1025,1 77 - 104
16:14 16,1 12,1 26,0 Zuiden 27,0 1024,7 77 - 98
16:19 16,1 12,3 20,0 Zuiden 27,0 1024,7 78 - 116
16:24 16,2 12,2 18,0 Zuiden 24,0 1024,7 77 - 109
16:29 16,1 12,1 21,0 Zuiden 24,0 1024,7 77 - 95
16:34 16,1 12,3 14,0 Zuiden 19,0 1024,7 78 - 76
16:39 16,1 12,3 21,0 Zuiden 23,0 1024,7 78 - 74
16:44 16,1 12,3 20,0 Zuiden 23,0 1024,7 78 - 70
16:49 16,1 12,3 24,0 Zuiden 29,0 1024,7 78 - 67
16:54 16,1 12,3 23,0 Zuiden 23,0 1024,4 78 - 47
16:59 16,0 12,2 13,0 ZZW 23,0 1024,7 78 - 51
17:04 15,9 12,1 14,0 Zuiden 19,0 1024,7 78 - 53
17:09 15,9 12,1 16,0 Zuiden 19,0 1024,4 78 - 56
17:14 15,9 12,1 14,0 Zuiden 23,0 1024,4 78 - 49
17:19 15,9 12,1 18,0 ZZO 19,0 1024,4 78 - 44
17:24 15,9 12,3 16,0 ZZO 19,0 1024,4 79 - 32
17:29 15,8 12,2 20,0 ZZO 19,0 1024,4 79 - 26
17:34 15,8 12,2 16,0 Zuiden 21,0 1024,0 79 - 25
17:39 15,7 12,1 16,0 ZZO 18,0 1024,4 79 - 14
17:44 15,6 12,0 13,0 ZZO 18,0 1024,4 79 - 11
17:49 15,5 11,9 16,0 ZZO 19,0 1024,4 79 - 7
17:54 15,4 12,0 20,0 ZZO 19,0 1024,0 80 - 5
17:59 15,3 11,9 14,0 Zuiden 19,0 1024,0 80 - 5
18:04 15,3 11,9 13,0 Zuiden 19,0 1024,4 80 - -
18:09 15,3 11,7 14,0 ZZO 23,0 1024,4 79 - -
18:14 15,3 11,7 14,0 ZZW 18,0 1024,4 79 - -
18:19 15,3 11,5 14,0 Zuiden 18,0 1024,4 78 - -
18:24 15,3 11,3 11,0 Zuiden 18,0 1024,4 77 - -
18:29 15,3 11,3 20,0 Zuiden 19,0 1024,4 77 - -
18:34 15,3 11,3 10,0 Zuiden 19,0 1024,4 77 - -
18:39 15,1 11,3 18,0 ZZO 21,0 1024,4 78 - -
18:44 15,1 11,1 18,0 ZZO 21,0 1024,4 77 - -
18:49 15,1 11,1 16,0 ZZO 19,0 1024,4 77 - -
18:54 14,9 10,9 11,0 ZZO 21,0 1024,4 77 - -
18:59 14,7 10,7 10,0 Zuiden 21,0 1024,4 77 - -
19:04 14,4 10,6 16,0 ZZO 16,0 1024,4 78 - -
19:09 14,3 10,5 14,0 ZZO 16,0 1024,4 78 - -
19:14 14,2 10,4 16,0 ZZO 19,0 1024,4 78 - -
19:19 14,0 10,2 11,0 ZZO 19,0 1024,4 78 - -
19:24 13,9 10,1 16,0 Zuiden 16,0 1024,4 78 - -
19:29 13,8 10,0 13,0 Zuiden 15,0 1024,0 78 - -
19:34 13,7 9,9 14,0 ZZO 18,0 1024,4 78 - -
19:39 13,6 9,8 10,0 Zuiden 15,0 1024,4 78 - -
19:44 13,5 9,7 16,0 ZZO 16,0 1024,4 78 - -
19:49 13,4 9,6 10,0 Zuiden 15,0 1024,4 78 - -
19:54 13,3 9,5 11,0 ZZO 13,0 1024,0 78 - -
19:59 13,3 9,5 13,0 ZZO 16,0 1024,0 78 - -
20:04 13,3 9,4 13,0 ZZO 15,0 1024,0 77 - -
20:09 13,2 9,3 11,0 ZZO 18,0 1024,0 77 - -
20:14 13,2 9,3 14,0 ZZO 18,0 1024,0 77 - -
20:19 13,1 9,2 10,0 ZZO 13,0 1024,0 78 - -
20:24 12,9 9,2 13,0 ZZO 15,0 1024,0 78 - -
20:29 12,8 9,1 14,0 ZZO 16,0 1024,0 78 - -
20:34 12,7 9,2 14,0 ZZO 16,0 1024,0 79 - -
20:39 12,8 9,2 14,0 ZZO 15,0 1024,0 79 - -
20:44 12,9 9,2 11,0 Zuiden 16,0 1024,0 78 - -
20:49 12,8 9,1 10,0 Zuiden 15,0 1024,0 78 - -
20:54 12,9 9,2 8,0 Zuiden 15,0 1024,0 78 - -
20:59 12,8 9,1 11,0 ZZW 16,0 1024,0 78 - -

Download your copy of this data-set  here

Our weather-data as stored at Weather Underground. Script ontwikkeld door Jim McMurry. Rewritten for template use Leuven-Template

Apparatuur in gebruik:

Weerstation
Davis Vantage pro 2

Weerprogramma
Meteobridge

Weercomputer
Meteobridge Nano SD

Webleverancier
Versio

Davis Vantage pro 2

Meteobridge

Meteobridge Nano SD

Versio